SCP
0 0 0 0 0 0 0 0 0 0 0 0 0 0 0 0 0 0 0 0 0 0 0 0 0 0 0 0 0 0 0 0 0 0 0 0 0 0 0 0 0 0 0 0
0 0 0 0 0 0 0 0 0 0 0 0 0 0 0 0 0 0 0 0 0 0 0 0 0 0 0 0 0 0 0 0 0 0 0 0 0 0 0 0 0 0 0 0
0 0 0 0 0 0 0 0 0 0 0 0 0 0 0 0 0 0 0 0 0 0 0 0 0 0 0 0 0 0 0 0 0 0 0 0 0 0 0 0 0 0 0 0
0 0 0 0 0 0 0 0 0 0 0 0 0 0 0 0 0 0 0 0 0 0 0 0 0 0 0 0 0 0 0 0 0 0 0 0 0 0 0 0 0 0 0 0
0 0 0 0 0 0 0 0 0 0 0 0 0 0 0 0 0 0 0 0 0 0 0 0 0 0 0 0 0 0 0 0 0 0 0 0 0 0 0 0 0 0 0 0
0 0 0 0 0 0 0 0 0 0 0 0 0 0 -0 0 0 0 0 0 0 0 0 0 0 0 0 0 0 0 0 0 0 0 0 0 0 0 0 0 0 0 0 0
0 0 0 0 0 0 0 0 0 0 0 0 0 0 0 0 0 0 0 0 0 0 0 0 0 0 0 0 0 0 0 0 0 0 0 0 0 0 0 0 0 0 0 0
0 0 0 0 0 0 0 0 0 0 0 0 0 0 0 0 0 0 0 0 0 0 0 0 0 0 0 0 0 0 0 0 0 0 0 0 0 0 0 0 0 0 0 0
0 0 0 0 0 0 0 0 0 0 0 0 0 0 0 0 0 0 0 0 0 0 0 0 0 0 0 0 0 0 0 0 0 0 0 0 0 0 0 0 0 0 0 0
0 0 0 0 0 0 0 0 0 0 0 0 0 0 0 0 0 0 0 0 0 0 0 0 0 0 0 0 0 0 0 0 0 0 0 0 0 0 0 0 0 0 0 0
0 0 0 0 0 0 0 0 0 0 0 0 0 0 0 0 0 0 0 0 0 0 0 0 0 0 0 0 0 0 0 0 0 0 0 0 0 0 0 0 0 0 0 0
0 0 0 0 0 0 0 0 0 0 0 0 0 0 0 0 0 0 0 0 0 0 0 0 0 0 0 0 0 0 0 0 0 0 0 0 0 0 0 0 0 0 0 0
0 0 0 0 0 0 0 0 0 0 0 0 0 0 0 0 0 0 0 0 0 0 0 0 0 0 0 0 0 0 0 0 0 0 0 0 0 0 0 0 0 0 0 0
0 0 0 0 0 0 0 0 0 0 0 0 0 0 0 0 0 0 0 0 0 0 0 0 0 0 0 0 0 0 0 0 0 0 0 0 0 0 0 0 0 0 0 0
-0 0 0 0 0 0 0 0 0 0 0 0 0 0 0 0 0 0 0 0 0 0 0 0 0 0 0 0 0 0 0 0 0 0 0 0 0 0 0 0 0 0 0 0
-0 0 0 0 0 0 -0 -0 -0 0 0 0 0 0 0 0 0 0 0 0 0 0 0 0 0 0 0 0 0 0 0 0 0 0 0 0 0 0 0 0 0 0 0 0
0 -0 0 -0 0 0 0 -0 -0 -0 0 0 0 0 0 0 0 0 0 0 0 0 0 0 0 0 0 0 0 0 0 0 0 0 0 0 0 0 0 0 0 0 0 0
0 -0 -0 0 0 0 0 0 0 0 0 0 0 -0 -0 0 0 0 0 0 0 0 0 0 0 0 0 0 0 0 0 0 0 0 0 0 0 0 0 0 0 0 0 0
0 0 -0 0 0 0 0 0 0 0 0 0 0 0 0 0 0 0 0 0 0 0 0 0 0 0 0 0 0 0 0 0 0 0 0 0 0 0 0 0 0 0 0 0
0 0 0 0 0 0 0 0 0 0 0 0 0 0 0 0 0 0 0 0 0 0 0 0 0 0 0 0 0 0 0 0 0 0 0 0 0 0 0 0 0 0 0 0
0 0 0 0 0 0 0 0 0 0 0 0 0 0 0 0 0 0 0 0 0 0 0 0 0 0 0 0 0 0 0 0 0 0 0 0 0 0 0 0 0 0 0 0
0 0 0 0 0 0 0 0 0 0 0 0 0 0 0 0 0 0 0 0 0 0 0 0 0 0 0 0 0 0 0 0 0 0 0 0 0 0 0 0 0 0 0 0
0 0 0 0 0 0 0 0 0 0 0 0 0 0 0 0 0 0 0 0 0 0 0 0 0 0 0 0 0 0 0 0 0 0 0 0 0 0 0 0 0 0 0 0
0 0 0 0 0 0 0 0 0 0 0 0 0 0 0 0 0 0 0 0 0 0 0 0 0 0 0 0 0 0 0 0 0 0 0 0 0 0 0 0 0 0 0 0
0 0 0 0 0 0 0 0 0 0 0 0 0 0 0 0 0 0 0 0 0 0 0 0 0 0 0 0 0 0 0 0 0 0 0 0 0 0 0 0 0 0 0 0
0 0 0 0 0 0 0 0 0 0 0 0 0 0 0 0 0 0 0 0 0 0 0 0 0 0 0 0 0 0 0 0 0 0 -0 0 0 0 0 0 0 0 0 0
Wind_Speed_500mb
23 16 31 36 36 20 8 24 15 9 4 14 34 41 37 40 35 37 42 38 38 46 47 52 53 50 56 55 49 41 37 33 36 35 39 41 44 47 51 52 52 50 50 54
16 42 30 22 29 33 20 16 18 7 5 10 17 39 40 42 54 58 58 52 52 53 55 60 65 65 51 59 59 56 51 45 42 43 41 43 45 50 49 51 51 50 53 56
39 11 37 31 25 34 38 39 24 12 2 9 17 37 37 34 52 60 55 59 57 57 57 54 56 55 53 58 58 62 59 53 51 48 49 53 57 61 61 62 57 55 54 54
32 48 21 30 42 30 31 23 26 18 8 16 1 25 34 19 21 23 41 43 52 52 49 55 53 52 46 49 49 53 55 54 54 54 58 60 62 65 63 61 60 57 57 54
28 21 36 37 27 34 16 16 28 29 25 19 35 16 31 17 34 28 26 30 35 38 35 36 39 40 47 42 40 39 43 47 51 57 58 59 62 62 56 56 60 61 61 61
43 15 38 41 27 37 17 18 12 10 14 17 42 32 46 38 36 28 16 24 27 30 38 34 37 32 34 39 42 45 47 49 53 56 57 58 58 57 57 56 56 56 57 57
18 47 9 21 27 32 33 27 11 11 13 23 13 26 48 13 14 24 20 20 29 37 32 29 27 27 34 40 41 45 49 53 55 54 54 55 54 55 55 53 54 54 55 57
31 17 49 32 40 24 46 38 13 19 19 19 17 26 23 16 43 48 59 44 45 42 28 39 39 34 34 35 36 36 34 36 39 43 45 45 46 45 44 44 47 49 50 50
24 33 21 34 30 38 36 30 37 19 4 7 20 29 29 33 19 19 31 36 40 40 38 28 30 32 36 38 35 31 28 27 24 23 22 22 24 26 29 32 35 39 41 43
11 11 17 42 39 37 31 31 22 20 18 25 26 34 30 5 18 26 31 38 31 35 32 31 29 31 34 35 32 28 24 21 19 17 16 15 16 18 20 22 25 29 32 36
39 9 11 25 30 37 21 25 13 14 21 22 27 28 39 36 32 29 25 41 41 38 38 32 34 37 37 34 29 24 21 17 14 12 11 9 10 14 18 22 26 30 33 37
27 10 30 32 19 48 48 42 42 19 31 24 33 35 7 14 26 35 34 24 28 31 33 39 43 42 38 34 30 27 22 19 16 14 12 12 14 18 20 22 24 26 26 28
35 10 15 16 36 22 34 49 47 48 31 41 28 30 32 26 15 21 28 24 29 33 41 46 48 46 43 38 32 27 23 19 17 17 18 20 21 22 23 26 28 31 31 34
14 9 39 29 20 3 37 53 50 47 31 34 35 44 50 26 28 33 18 23 34 42 50 50 48 47 44 40 34 29 26 24 23 25 26 25 22 23 25 28 29 30 31 32
9 9 24 35 46 11 4 39 52 54 51 42 51 51 53 46 39 24 25 28 35 46 52 55 53 49 45 39 34 33 32 30 29 28 25 25 25 24 24 25 28 29 31 32
27 7 16 26 37 51 51 43 44 29 49 51 55 45 47 61 46 31 40 34 42 53 59 51 54 52 48 46 42 37 34 33 27 22 21 23 24 25 27 30 29 31 31 30
14 9 10 13 22 35 38 44 47 47 35 19 29 43 32 43 37 48 42 40 47 58 63 69 64 54 50 43 38 35 29 26 20 21 24 26 26 25 25 26 26 26 25 25
9 11 10 13 21 23 25 33 48 48 46 43 37 41 50 75 93 50 42 40 51 52 58 66 60 51 46 40 37 35 28 26 29 30 29 29 26 24 24 24 26 28 29 31
32 15 9 12 20 26 39 7 9 27 41 34 38 45 56 61 21 20 24 26 23 40 52 59 54 42 37 33 30 30 30 34 38 35 31 29 26 24 26 27 27 30 33 32
30 27 12 11 15 18 9 7 27 11 16 26 24 19 25 24 19 26 2 4 15 23 29 39 38 36 34 32 28 27 29 29 32 33 30 27 26 25 27 28 31 33 36 37
12 12 28 24 21 15 7 25 29 16 3 23 26 27 25 6 2 15 16 15 17 15 15 15 21 23 25 24 23 23 24 26 27 28 27 26 27 27 31 33 37 38 41 45
24 19 12 18 26 26 26 3 5 16 15 17 20 20 22 23 25 24 20 18 14 10 6 6 7 10 13 15 15 18 22 24 25 30 32 32 30 31 34 37 40 41 45 50
8 4 5 1 3 11 21 21 14 17 17 21 20 21 21 21 20 17 15 13 12 10 9 10 9 8 10 13 15 21 26 27 29 28 31 37 35 35 37 41 44 47 47 52
3 6 3 12 11 15 14 13 14 15 16 15 18 23 20 22 20 20 19 18 17 15 13 13 11 14 18 20 25 28 34 35 37 34 38 41 46 46 44 46 48 50 51 56
4 10 10 10 18 21 17 12 8 11 13 18 23 19 20 18 22 20 21 22 22 21 19 19 20 22 24 27 31 34 39 43 48 46 46 50 54 57 56 55 55 56 55 58
5 4 3 4 12 12 9 6 6 13 16 14 16 18 21 21 20 17 19 19 19 20 21 20 22 22 25 30 35 39 41 46 52 56 57 59 62 65 64 66 72 66 68 66
Wind_Direction_500mb
194 206 213 205 214 238 273 225 223 193 205 229 240 253 254 241 239 242 244 243 245 246 249 247 242 238 261 247 241 241 250 252 253 254 254 259 265 267 265 266 266 265 261 257
182 231 219 205 209 219 224 237 233 245 226 227 272 271 268 253 238 241 247 245 243 246 252 254 253 257 254 242 245 245 244 248 252 257 262 266 270 270 270 268 267 266 263 260
215 211 194 181 195 212 224 232 234 256 125 243 292 276 258 255 245 236 242 247 247 246 250 253 254 254 248 245 245 245 247 246 246 254 257 262 265 267 267 265 268 272 270 267
236 235 209 205 217 196 223 216 227 221 240 255 295 278 264 251 240 224 230 236 240 241 246 251 250 247 250 246 245 242 243 245 246 249 255 261 266 265 267 266 267 267 269 268
208 191 196 206 208 198 245 172 202 215 231 272 244 263 264 251 259 247 230 224 232 240 240 246 253 251 242 246 241 240 241 244 249 256 262 264 262 262 264 261 260 260 265 267
229 199 199 220 193 190 140 117 137 198 220 240 236 222 269 247 252 245 214 219 235 242 255 247 244 247 240 240 247 251 256 259 259 259 261 261 263 262 258 258 261 264 267 268
210 230 230 203 193 195 189 166 170 204 204 240 224 210 246 264 334 270 224 242 260 256 254 246 231 247 252 250 250 254 256 256 256 257 257 256 256 255 257 259 261 263 264 263
211 212 209 195 206 190 197 186 185 215 215 251 162 231 244 241 250 239 254 268 265 231 254 245 241 262 259 253 252 246 241 241 241 244 249 252 254 256 257 259 259 261 263 266
205 226 184 200 198 192 194 214 213 264 83 272 218 251 281 259 236 236 235 245 239 237 266 257 243 246 238 228 218 213 214 217 218 223 232 241 248 252 256 260 260 260 261 264
206 244 214 203 203 205 192 191 199 217 215 228 239 243 252 175 238 239 241 241 242 247 238 233 234 223 210 202 199 199 202 206 207 214 226 241 254 261 264 266 267 269 271 271
220 232 181 176 202 184 195 201 214 219 224 229 253 249 245 251 245 244 234 236 238 240 236 231 211 200 195 191 188 189 192 197 199 201 210 231 256 270 274 273 272 274 276 279
209 216 233 215 203 218 204 202 194 203 203 232 249 254 177 241 250 247 232 226 241 237 220 202 193 188 187 187 186 185 186 188 197 209 222 242 262 275 280 282 285 287 290 291
203 221 226 222 222 226 232 222 216 227 236 216 218 242 250 241 232 223 228 219 219 206 193 189 188 188 188 187 190 195 203 216 232 246 256 264 268 271 272 278 284 287 290 292
32 282 241 252 240 182 216 217 217 216 228 232 236 251 257 231 233 231 210 206 201 195 194 193 193 194 195 196 200 206 216 225 237 244 246 250 254 266 275 281 283 287 290 289
133 246 278 267 257 222 188 224 216 221 230 233 240 236 241 240 233 239 228 212 200 202 201 201 200 200 201 205 209 216 225 231 232 231 240 252 259 268 270 274 281 285 287 290
169 282 332 265 261 254 252 243 238 265 246 244 241 245 233 251 264 248 230 200 209 214 212 205 205 205 208 212 216 222 232 240 242 250 263 271 280 283 286 290 290 291 297 302
171 190 311 286 350 283 246 232 232 239 228 218 246 241 287 283 273 255 236 217 224 225 211 211 208 208 213 218 226 235 237 242 247 261 263 262 266 272 280 282 284 286 290 297
187 183 147 270 311 279 270 234 231 237 242 230 240 242 243 246 261 263 244 232 231 223 211 208 208 213 220 227 232 231 228 241 252 259 262 261 261 268 273 279 285 291 295 302
215 183 197 231 258 278 281 226 205 207 240 244 244 247 252 254 280 261 242 247 221 203 201 202 204 214 223 229 234 240 240 238 241 244 252 255 256 258 264 271 279 284 290 296
219 210 199 187 238 266 321 35 352 317 251 17 349 331 316 308 233 244 84 190 173 175 182 187 194 210 225 231 237 238 244 242 239 246 253 260 265 271 276 283 288 292 296 298
176 192 209 228 239 240 25 318 314 181 287 0 2 345 334 258 62 86 89 108 133 136 150 169 186 208 224 234 243 249 252 250 254 265 268 277 279 278 278 281 286 289 292 295
186 185 176 226 217 232 358 161 243 354 32 24 22 15 54 75 83 83 81 82 104 111 104 129 175 225 246 261 271 271 272 278 285 283 279 288 284 281 281 283 286 289 291 291
214 317 191 75 109 71 41 71 41 31 45 26 32 30 57 69 68 82 79 73 61 52 39 34 21 345 324 328 316 317 315 310 302 295 292 300 301 298 296 298 298 300 300 299
96 357 101 150 126 104 85 68 56 57 64 52 53 51 55 65 63 63 63 64 67 60 50 35 11 351 344 336 329 324 320 316 314 308 306 312 311 310 308 307 306 304 305 302
1 306 116 96 134 130 87 74 77 77 77 68 64 70 72 73 72 65 57 49 49 42 36 27 17 6 355 344 336 329 325 322 321 321 318 317 315 315 312 310 308 305 303 304
289 107 231 108 113 83 86 73 96 104 89 88 90 71 73 76 73 65 56 44 36 26 19 12 359 348 343 341 336 330 329 323 320 321 322 318 317 314 313 312 307 303 302 300
Wind_Speed_850mb
23 16 31 36 36 20 8 24 15 9 4 14 34 41 37 40 35 37 42 38 38 46 47 52 53 50 56 55 49 41 37 33 36 35 39 41 44 47 51 52 52 50 50 54
16 42 30 22 29 33 20 16 18 7 5 10 17 39 40 42 54 58 58 52 52 53 55 60 65 65 51 59 59 56 51 45 42 43 41 43 45 50 49 51 51 50 53 56
39 11 37 31 25 34 38 39 24 12 2 9 17 37 37 34 52 60 55 59 57 57 57 54 56 55 53 58 58 62 59 53 51 48 49 53 57 61 61 62 57 55 54 54
32 48 21 30 42 30 31 23 26 18 8 16 1 25 34 19 21 23 41 43 52 52 49 55 53 52 46 49 49 53 55 54 54 54 58 60 62 65 63 61 60 57 57 54
28 21 36 37 27 34 16 16 28 29 25 19 35 16 31 17 34 28 26 30 35 38 35 36 39 40 47 42 40 39 43 47 51 57 58 59 62 62 56 56 60 61 61 61
43 15 38 41 27 37 17 18 12 10 14 17 42 32 46 38 36 28 16 24 27 30 38 34 37 32 34 39 42 45 47 49 53 56 57 58 58 57 57 56 56 56 57 57
18 47 9 21 27 32 33 27 11 11 13 23 13 26 48 13 14 24 20 20 29 37 32 29 27 27 34 40 41 45 49 53 55 54 54 55 54 55 55 53 54 54 55 57
31 17 49 32 40 24 46 38 13 19 19 19 17 26 23 16 43 48 59 44 45 42 28 39 39 34 34 35 36 36 34 36 39 43 45 45 46 45 44 44 47 49 50 50
24 33 21 34 30 38 36 30 37 19 4 7 20 29 29 33 19 19 31 36 40 40 38 28 30 32 36 38 35 31 28 27 24 23 22 22 24 26 29 32 35 39 41 43
11 11 17 42 39 37 31 31 22 20 18 25 26 34 30 5 18 26 31 38 31 35 32 31 29 31 34 35 32 28 24 21 19 17 16 15 16 18 20 22 25 29 32 36
39 9 11 25 30 37 21 25 13 14 21 22 27 28 39 36 32 29 25 41 41 38 38 32 34 37 37 34 29 24 21 17 14 12 11 9 10 14 18 22 26 30 33 37
27 10 30 32 19 48 48 42 42 19 31 24 33 35 7 14 26 35 34 24 28 31 33 39 43 42 38 34 30 27 22 19 16 14 12 12 14 18 20 22 24 26 26 28
35 10 15 16 36 22 34 49 47 48 31 41 28 30 32 26 15 21 28 24 29 33 41 46 48 46 43 38 32 27 23 19 17 17 18 20 21 22 23 26 28 31 31 34
14 9 39 29 20 3 37 53 50 47 31 34 35 44 50 26 28 33 18 23 34 42 50 50 48 47 44 40 34 29 26 24 23 25 26 25 22 23 25 28 29 30 31 32
9 9 24 35 46 11 4 39 52 54 51 42 51 51 53 46 39 24 25 28 35 46 52 55 53 49 45 39 34 33 32 30 29 28 25 25 25 24 24 25 28 29 31 32
27 7 16 26 37 51 51 43 44 29 49 51 55 45 47 61 46 31 40 34 42 53 59 51 54 52 48 46 42 37 34 33 27 22 21 23 24 25 27 30 29 31 31 30
14 9 10 13 22 35 38 44 47 47 35 19 29 43 32 43 37 48 42 40 47 58 63 69 64 54 50 43 38 35 29 26 20 21 24 26 26 25 25 26 26 26 25 25
9 11 10 13 21 23 25 33 48 48 46 43 37 41 50 75 93 50 42 40 51 52 58 66 60 51 46 40 37 35 28 26 29 30 29 29 26 24 24 24 26 28 29 31
32 15 9 12 20 26 39 7 9 27 41 34 38 45 56 61 21 20 24 26 23 40 52 59 54 42 37 33 30 30 30 34 38 35 31 29 26 24 26 27 27 30 33 32
30 27 12 11 15 18 9 7 27 11 16 26 24 19 25 24 19 26 2 4 15 23 29 39 38 36 34 32 28 27 29 29 32 33 30 27 26 25 27 28 31 33 36 37
12 12 28 24 21 15 7 25 29 16 3 23 26 27 25 6 2 15 16 15 17 15 15 15 21 23 25 24 23 23 24 26 27 28 27 26 27 27 31 33 37 38 41 45
24 19 12 18 26 26 26 3 5 16 15 17 20 20 22 23 25 24 20 18 14 10 6 6 7 10 13 15 15 18 22 24 25 30 32 32 30 31 34 37 40 41 45 50
8 4 5 1 3 11 21 21 14 17 17 21 20 21 21 21 20 17 15 13 12 10 9 10 9 8 10 13 15 21 26 27 29 28 31 37 35 35 37 41 44 47 47 52
3 6 3 12 11 15 14 13 14 15 16 15 18 23 20 22 20 20 19 18 17 15 13 13 11 14 18 20 25 28 34 35 37 34 38 41 46 46 44 46 48 50 51 56
4 10 10 10 18 21 17 12 8 11 13 18 23 19 20 18 22 20 21 22 22 21 19 19 20 22 24 27 31 34 39 43 48 46 46 50 54 57 56 55 55 56 55 58
5 4 3 4 12 12 9 6 6 13 16 14 16 18 21 21 20 17 19 19 19 20 21 20 22 22 25 30 35 39 41 46 52 56 57 59 62 65 64 66 72 66 68 66
Wind_Direction_850mb
194 206 213 205 214 238 273 225 223 193 205 229 240 253 254 241 239 242 244 243 245 246 249 247 242 238 261 247 241 241 250 252 253 254 254 259 265 267 265 266 266 265 261 257
182 231 219 205 209 219 224 237 233 245 226 227 272 271 268 253 238 241 247 245 243 246 252 254 253 257 254 242 245 245 244 248 252 257 262 266 270 270 270 268 267 266 263 260
215 211 194 181 195 212 224 232 234 256 125 243 292 276 258 255 245 236 242 247 247 246 250 253 254 254 248 245 245 245 247 246 246 254 257 262 265 267 267 265 268 272 270 267
236 235 209 205 217 196 223 216 227 221 240 255 295 278 264 251 240 224 230 236 240 241 246 251 250 247 250 246 245 242 243 245 246 249 255 261 266 265 267 266 267 267 269 268
208 191 196 206 208 198 245 172 202 215 231 272 244 263 264 251 259 247 230 224 232 240 240 246 253 251 242 246 241 240 241 244 249 256 262 264 262 262 264 261 260 260 265 267
229 199 199 220 193 190 140 117 137 198 220 240 236 222 269 247 252 245 214 219 235 242 255 247 244 247 240 240 247 251 256 259 259 259 261 261 263 262 258 258 261 264 267 268
210 230 230 203 193 195 189 166 170 204 204 240 224 210 246 264 334 270 224 242 260 256 254 246 231 247 252 250 250 254 256 256 256 257 257 256 256 255 257 259 261 263 264 263
211 212 209 195 206 190 197 186 185 215 215 251 162 231 244 241 250 239 254 268 265 231 254 245 241 262 259 253 252 246 241 241 241 244 249 252 254 256 257 259 259 261 263 266
205 226 184 200 198 192 194 214 213 264 83 272 218 251 281 259 236 236 235 245 239 237 266 257 243 246 238 228 218 213 214 217 218 223 232 241 248 252 256 260 260 260 261 264
206 244 214 203 203 205 192 191 199 217 215 228 239 243 252 175 238 239 241 241 242 247 238 233 234 223 210 202 199 199 202 206 207 214 226 241 254 261 264 266 267 269 271 271
220 232 181 176 202 184 195 201 214 219 224 229 253 249 245 251 245 244 234 236 238 240 236 231 211 200 195 191 188 189 192 197 199 201 210 231 256 270 274 273 272 274 276 279
209 216 233 215 203 218 204 202 194 203 203 232 249 254 177 241 250 247 232 226 241 237 220 202 193 188 187 187 186 185 186 188 197 209 222 242 262 275 280 282 285 287 290 291
203 221 226 222 222 226 232 222 216 227 236 216 218 242 250 241 232 223 228 219 219 206 193 189 188 188 188 187 190 195 203 216 232 246 256 264 268 271 272 278 284 287 290 292
32 282 241 252 240 182 216 217 217 216 228 232 236 251 257 231 233 231 210 206 201 195 194 193 193 194 195 196 200 206 216 225 237 244 246 250 254 266 275 281 283 287 290 289
133 246 278 267 257 222 188 224 216 221 230 233 240 236 241 240 233 239 228 212 200 202 201 201 200 200 201 205 209 216 225 231 232 231 240 252 259 268 270 274 281 285 287 290
169 282 332 265 261 254 252 243 238 265 246 244 241 245 233 251 264 248 230 200 209 214 212 205 205 205 208 212 216 222 232 240 242 250 263 271 280 283 286 290 290 291 297 302
171 190 311 286 350 283 246 232 232 239 228 218 246 241 287 283 273 255 236 217 224 225 211 211 208 208 213 218 226 235 237 242 247 261 263 262 266 272 280 282 284 286 290 297
187 183 147 270 311 279 270 234 231 237 242 230 240 242 243 246 261 263 244 232 231 223 211 208 208 213 220 227 232 231 228 241 252 259 262 261 261 268 273 279 285 291 295 302
215 183 197 231 258 278 281 226 205 207 240 244 244 247 252 254 280 261 242 247 221 203 201 202 204 214 223 229 234 240 240 238 241 244 252 255 256 258 264 271 279 284 290 296
219 210 199 187 238 266 321 35 352 317 251 17 349 331 316 308 233 244 84 190 173 175 182 187 194 210 225 231 237 238 244 242 239 246 253 260 265 271 276 283 288 292 296 298
176 192 209 228 239 240 25 318 314 181 287 0 2 345 334 258 62 86 89 108 133 136 150 169 186 208 224 234 243 249 252 250 254 265 268 277 279 278 278 281 286 289 292 295
186 185 176 226 217 232 358 161 243 354 32 24 22 15 54 75 83 83 81 82 104 111 104 129 175 225 246 261 271 271 272 278 285 283 279 288 284 281 281 283 286 289 291 291
214 317 191 75 109 71 41 71 41 31 45 26 32 30 57 69 68 82 79 73 61 52 39 34 21 345 324 328 316 317 315 310 302 295 292 300 301 298 296 298 298 300 300 299
96 357 101 150 126 104 85 68 56 57 64 52 53 51 55 65 63 63 63 64 67 60 50 35 11 351 344 336 329 324 320 316 314 308 306 312 311 310 308 307 306 304 305 302
1 306 116 96 134 130 87 74 77 77 77 68 64 70 72 73 72 65 57 49 49 42 36 27 17 6 355 344 336 329 325 322 321 321 318 317 315 315 312 310 308 305 303 304
289 107 231 108 113 83 86 73 96 104 89 88 90 71 73 76 73 65 56 44 36 26 19 12 359 348 343 341 336 330 329 323 320 321 322 318 317 314 313 312 307 303 302 300